Overview Statistics Trail Chart Weather Telemetry Raw packets
 

This is the latest recevied weather packets stored in our database for station/object DK6GC-10. If no packets are shown the sender has not sent any weather packets the latest 10 day(s).

<< 22 23 24 25 26 27 28 >>
Time Temp. Humidity Pressure Rain* Wind** Luminosity Snow
1788171319 22.78° C 57% 1018.8 hPa - - - -
1788170419 21.11° C 62% 1018.8 hPa - - - -
1788169519 21.11° C 65% 1018.8 hPa - - - -
1788168619 22.22° C 60% 1018.8 hPa - - - -
1788167718 22.78° C 61% 1018.8 hPa - - - -
1788166818 21.67° C 66% 1018.9 hPa - - - -
1788165918 21.67° C 64% 1019 hPa - - - -
1788165018 22.78° C 62% 1018.9 hPa - - - -
1788164118 21.67° C 65% 1018.8 hPa - - - -
1788163218 21.11° C 68% 1018.7 hPa - - - -
1788162317 20.56° C 70% 1018.6 hPa - - - -
1788161417 20.56° C 78% 1018.7 hPa - - - -
1788160517 18.89° C 85% 1018.7 hPa - - - -
1788159617 19.44° C 82% 1018.6 hPa - - - -
1788158717 19.44° C 87% 1018.6 hPa - - - -
1788157816 18.89° C 87% 1018.5 hPa - - - -
1788156916 18.33° C 93% 1018.3 hPa - - - -
1788151525 17.22° C 100% 1017.7 hPa - - - -
1788150625 17.22° C 100% 1017.7 hPa - - - -
1788149724 17.22° C 100% 1017.5 hPa - - - -
1788148833 17.78° C 100% 1017.4 hPa - - - -
1788147924 17.78° C 100% 1017.3 hPa - - - -
1788147024 17.78° C 100% 1017.3 hPa - - - -
1788146124 17.78° C 100% 1017.2 hPa - - - -
1788145224 17.78° C 100% 1017.3 hPa - - - -

* Rain since midnight (hover to see other rain measurements)
** Current wind speed in m/s (hover to see current wind gust speed)